Flag for Brazil Weather past 2 weeks in Londrina, Paraná, Brazil

Now
73 °F

Clear.


Feels Like: 68 °F
Forecast: N/A
Wind: 6 mph from Southwest

Location: Londrina Aeroporto

Current Time: Feb 27, 2015 at 8:45:05 PM

Latest Report: Feb 27, 2015 at 8:00 PM


Visibility: 10 mi

Pressure: 29.92 "Hg

Humidity: 100%

Dew point: 73 °F

Location of LondrinaLocation

Historic Weather in Londrina — Graph

°F

Londrina temperature yesterday

Maximum temperature yesterday: 88 °F (at 1:00 PM)
Minimum temperature yesterday: 68 °F (at 5:00 AM)
Average temperature yesterday: 74 °F

Past Weeks' High & Low Weather Summary

 TemperatureHumidityPressure
High91 °F (Feb 23, 5:00 PM)100% (Feb 12, 11:00 PM)30.12 "Hg (Feb 12, 11:00 PM)
Low64 °F (Feb 16, 6:00 AM)46% (Feb 23, 5:00 PM)29.77 "Hg (Feb 18, 5:00 PM)
Average74 °F94%29.99 "Hg
* Reported Feb 12 9:00 PM — Feb 27 8:00 PM, Londrina, Weather by CustomWeather, © 2015

Note: Actual official high and low records may vary slightly from our data, if they occured in-between our weather recording intervals... More about our weather records

Advertising

Londrina weather history for previous 24 hours

 ConditionsComfort  
Time TempWeatherWind HumidityBarometerVisibility
8:00 PM
Fri, Feb 27
73 °FClear.6 mph100%29.92 "Hg10 mi
7:00 PM73 °FPassing clouds.5 mph100%29.89 "HgN/A
6:00 PM75 °FPassing clouds.10 mph94%29.89 "HgN/A
5:00 PM81 °FPassing clouds.3 mph84%29.89 "HgN/A
4:00 PM81 °FPassing clouds.7 mph84%29.89 "HgN/A
3:00 PM81 °FPassing clouds.9 mph94%29.89 "HgN/A
2:00 PM79 °FThundershowers. Scattered clouds.8 mph89%29.92 "HgN/A
1:00 PM75 °FThunderstorms. Partly sunny.13 mph83%29.95 "HgN/A
12:00 PM81 °FThunderstorms. Partly sunny.5 mph100%29.98 "HgN/A
11:00 AM84 °FScattered clouds.2 mph89%29.98 "HgN/A
10:00 AM82 °FScattered clouds.3 mph94%30.01 "HgN/A
9:00 AM77 °FScattered clouds.3 mph100%30.01 "HgN/A
8:00 AM72 °FScattered clouds.2 mph100%29.98 "Hg5 mi
7:05 AM68 °FFog.2 mph100%29.98 "Hg1 mi
7:00 AM68 °FLight fog.2 mph100%29.98 "Hg2 mi
6:00 AM68 °FSunny.1 mph100%29.95 "Hg10 mi
5:00 AM70 °FClear.1 mph100%29.95 "Hg10 mi
4:00 AM72 °FClear.No wind100%29.95 "Hg10 mi
3:00 AM70 °FClear.No wind100%29.92 "Hg10 mi
2:00 AM70 °FClear.1 mph100%29.95 "Hg10 mi
1:00 AM70 °FClear.No wind100%29.95 "Hg10 mi
12:00 AM70 °FClear.2 mph100%29.95 "Hg10 mi
11:00 PM
Thu, Feb 26
72 °FClear.1 mph100%29.95 "Hg10 mi
10:00 PM72 °FClear.No wind100%29.95 "Hg10 mi
9:00 PM72 °FClear.1 mph100%29.92 "Hg10 mi
8:00 PM72 °FClear.3 mph100%29.92 "Hg10 mi
Weather by CustomWeather, © 2015

See weather overviewHow to use our weather pages